Date String (YYYY-MM-DD hh:mm:ss) UTC,Instrument flags,Ambient pressure (hPa),Sample flow (lpm),Bypass flow (lpm),Sample temperature (°C),Ambient temperature (°C),ASC tube jacket temperature (°C),LED temperature (°C),Box temperature (°C),Sample RH (%),Span deviation,Mass concentration (μg/m³),Mass concentration (μg/m³),Mass concentration (μg/m³)
DateTimeUTC,F1_M11,P_M11,Q1_M11,Q2_M11,T1_M11,T2_M11,T3_M11,T4_M11,T5_M11,U1_M11,ZSPAN_M11,X0_M11,X2_M11,X1_M11
2021-09-19 06:00:00,,0825.3,4.99,0.00,29.3,27.4,00.0,38.5,31.0,20.4,0000.0,0014.77,0004.12,0003.00
2021-09-19 06:01:00,,0825.4,5.00,0.00,29.3,27.7,00.0,38.5,31.1,20.4,0000.0,0016.20,0004.16,0002.99
2021-09-19 06:02:00,,0825.3,5.00,0.00,29.4,27.9,00.0,38.5,31.1,20.3,0000.0,0016.86,0004.21,0002.98
2021-09-19 06:03:00,,0825.3,5.00,0.00,29.4,28.1,00.0,38.5,31.2,20.4,0000.0,0016.71,0004.27,0002.97
2021-09-19 06:04:00,,0825.2,5.00,0.00,29.4,28.2,00.0,38.5,31.2,20.4,0000.0,0017.47,0004.33,0002.95
2021-09-19 06:05:00,,0825.2,5.01,0.00,29.4,28.3,00.0,38.5,31.2,20.3,0000.0,0018.45,0004.40,0002.93
2021-09-19 06:06:00,,0825.3,5.00,0.00,29.5,28.4,00.0,38.5,31.3,20.3,0000.0,0019.46,0004.42,0002.93
2021-09-19 06:07:00,,0825.3,5.01,0.00,29.5,28.5,00.0,38.5,31.3,20.3,0000.0,0021.31,0004.42,0002.93
2021-09-19 06:08:00,,0825.3,4.99,0.00,29.5,28.6,00.0,38.5,31.3,20.2,0000.0,0022.19,0004.40,0002.93
2021-09-19 06:09:00,,0825.3,5.00,0.00,29.5,28.6,00.0,38.5,31.3,20.3,0000.0,0020.97,0004.34,0002.92
2021-09-19 06:10:00,,0825.3,5.00,0.00,29.6,28.7,00.0,38.6,31.4,20.3,0000.0,0020.05,0004.31,0002.91
2021-09-19 06:11:00,,0825.3,5.00,0.00,29.6,28.7,00.0,38.6,31.4,20.2,0000.0,0019.58,0004.29,0002.91
2021-09-19 06:12:00,,0825.2,5.00,0.00,29.6,28.8,00.0,38.6,31.4,20.1,0000.0,0018.13,0004.21,0002.91
2021-09-19 06:13:00,,0825.2,5.00,0.00,29.6,28.8,00.0,38.6,31.5,20.2,0000.0,0018.41,0004.17,0002.90
2021-09-19 06:14:00,,0825.2,5.00,0.00,29.7,28.9,00.0,38.7,31.5,20.3,0000.0,0018.53,0004.15,0002.89
2021-09-19 06:15:00,,0825.1,5.00,0.00,29.7,28.1,00.0,38.7,31.3,20.3,0000.0,0017.96,0004.11,0002.90
2021-09-19 06:16:00,,0825.2,4.99,0.00,29.5,26.4,00.0,38.6,30.9,20.5,0000.0,0017.60,0004.05,0002.88
2021-09-19 06:17:00,,0825.2,5.00,0.00,29.4,26.3,00.0,38.6,30.8,20.6,0000.0,0018.19,0004.17,0002.89
2021-09-19 06:18:00,,0825.2,5.01,0.00,29.4,26.6,00.0,38.6,30.9,20.7,0000.0,0018.09,0004.34,0002.91
2021-09-19 06:19:00,,0825.2,5.01,0.00,29.3,27.0,00.0,38.6,31.0,20.9,0000.0,0017.48,0004.39,0002.90
2021-09-19 06:20:00,,0825.2,5.00,0.00,29.3,27.3,00.0,38.5,31.0,21.0,0000.0,0017.49,0004.44,0002.89
2021-09-19 06:21:00,,0825.3,5.00,0.00,29.4,27.6,00.0,38.5,31.1,21.1,0000.0,0017.89,0004.45,0002.87
2021-09-19 06:22:00,,0825.3,4.99,0.00,29.4,27.8,00.0,38.5,31.1,21.2,0000.0,0018.37,0004.46,0002.84
2021-09-19 06:23:00,,0825.2,5.01,0.00,29.4,28.0,00.0,38.5,31.1,21.2,0000.0,0018.81,0004.50,0002.80
2021-09-19 06:24:00,,0825.2,4.99,0.00,29.4,28.1,00.0,38.5,31.2,21.1,0000.0,0019.89,0004.49,0002.78
2021-09-19 06:25:00,,0825.2,5.00,0.00,29.4,28.3,00.0,38.5,31.2,21.2,0000.0,0020.36,0004.57,0002.77
2021-09-19 06:26:00,,0825.0,5.01,0.00,29.4,28.4,00.0,38.5,31.3,21.2,0000.0,0020.93,0004.59,0002.74
2021-09-19 06:27:00,,0825.1,4.99,0.00,29.5,28.4,00.0,38.5,31.3,21.3,0000.0,0022.05,0004.63,0002.74
2021-09-19 06:28:00,,0825.1,5.01,0.00,29.5,28.5,00.0,38.6,31.3,21.4,0000.0,0021.96,0004.61,0002.73
2021-09-19 06:29:00,,0825.0,4.99,0.00,29.5,28.6,00.0,38.6,31.3,21.4,0000.0,0020.22,0004.55,0002.71
2021-09-19 06:30:00,,0825.1,5.01,0.00,29.5,28.6,00.0,38.6,31.4,21.3,0000.0,0018.86,0004.43,0002.68
2021-09-19 06:31:00,,0825.2,5.00,0.00,29.5,28.7,00.0,38.6,31.4,21.4,0000.0,0018.86,0004.44,0002.66
2021-09-19 06:32:00,,0825.1,5.01,0.00,29.6,28.7,00.0,38.6,31.4,21.3,0000.0,0018.06,0004.41,0002.64
2021-09-19 06:33:00,,0825.1,5.00,0.00,29.6,28.8,00.0,38.6,31.4,21.3,0000.0,0018.08,0004.39,0002.63
2021-09-19 06:34:00,,0825.1,5.01,0.00,29.6,28.8,00.0,38.6,31.4,21.5,0000.0,0017.75,0004.34,0002.61
2021-09-19 06:35:00,,0824.9,4.99,0.00,29.6,28.8,00.0,38.7,31.4,21.3,0000.0,0016.84,0004.45,0002.61
2021-09-19 06:36:00,,0824.8,5.01,0.00,29.6,28.8,00.0,38.7,31.5,21.2,0000.0,0016.60,0004.46,0002.60
2021-09-19 06:37:00,,0824.9,4.99,0.00,29.6,28.9,00.0,38.7,31.4,21.1,0000.0,0016.71,0004.47,0002.59
2021-09-19 06:38:00,,0824.8,5.00,0.00,29.7,28.9,00.0,38.7,31.5,21.2,0000.0,0016.44,0004.46,0002.57
2021-09-19 06:39:00,,0824.8,5.01,0.00,29.6,28.2,00.0,38.7,31.3,21.2,0000.0,0015.51,0004.35,0002.54
2021-09-19 06:40:00,,0824.9,4.99,0.00,29.5,26.5,00.0,38.7,30.9,21.3,0000.0,0016.12,0004.34,0002.51
2021-09-19 06:41:00,,0824.9,5.02,0.00,29.4,26.3,00.0,38.7,30.9,21.3,0000.0,0016.74,0004.37,0002.51
2021-09-19 06:42:00,,0824.8,5.00,0.00,29.4,26.6,00.0,38.6,30.9,21.4,0000.0,0016.83,0004.30,0002.49
2021-09-19 06:43:00,,0824.8,5.00,0.00,29.4,27.0,00.0,38.6,31.0,21.4,0000.0,0017.17,0004.26,0002.47
2021-09-19 06:44:00,,0824.9,5.01,0.00,29.4,27.3,00.0,38.6,31.0,21.3,0000.0,0017.01,0004.25,0002.47
2021-09-19 06:45:00,,0824.7,5.00,0.00,29.4,27.6,00.0,38.6,31.1,21.2,0000.0,0017.00,0004.26,0002.49
2021-09-19 06:46:00,,0824.7,4.99,0.00,29.4,27.8,00.0,38.6,31.2,21.0,0000.0,0016.41,0004.14,0002.46
2021-09-19 06:47:00,,0824.8,5.00,0.00,29.4,28.0,00.0,38.6,31.2,21.0,0000.0,0016.27,0004.03,0002.44
2021-09-19 06:48:00,,0824.8,5.01,0.00,29.4,28.1,00.0,38.6,31.2,21.0,0000.0,0015.11,0003.90,0002.41
2021-09-19 06:49:00,,0824.8,4.99,0.00,29.4,28.3,00.0,38.6,31.2,20.8,0000.0,0013.59,0003.80,0002.37
2021-09-19 06:50:00,,0824.9,5.00,0.00,29.5,28.4,00.0,38.6,31.3,20.8,0000.0,0012.05,0003.70,0002.33
2021-09-19 06:51:00,,0824.8,5.00,0.00,29.5,28.4,00.0,38.6,31.3,20.8,0000.0,0011.07,0003.57,0002.29
2021-09-19 06:52:00,,0824.7,5.00,0.00,29.5,28.5,00.0,38.6,31.3,20.6,0000.0,0010.12,0003.48,0002.23
2021-09-19 06:53:00,,0824.8,4.99,0.00,29.5,28.6,00.0,38.6,31.3,20.6,0000.0,0010.08,0003.48,0002.19
2021-09-19 06:54:00,,0824.8,5.01,0.00,29.6,28.6,00.0,38.6,31.4,20.5,0000.0,0009.82,0003.41,0002.16
2021-09-19 06:55:00,,0824.8,4.99,0.00,29.6,28.7,00.0,38.6,31.4,20.3,0000.0,0009.89,0003.32,0002.10
2021-09-19 06:56:00,,0824.8,4.99,0.00,29.6,28.7,00.0,38.6,31.4,20.3,0000.0,0009.70,0003.24,0002.02
2021-09-19 06:57:00,,0824.7,5.01,0.00,29.6,28.8,00.0,38.7,31.4,20.1,0000.0,0009.40,0003.13,0001.95
2021-09-19 06:58:00,,0824.7,4.99,0.00,29.7,28.8,00.0,38.7,31.5,20.0,0000.0,0008.20,0002.98,0001.88
2021-09-19 06:59:00,,0824.6,5.02,0.00,29.7,28.9,00.0,38.7,31.5,20.0,0000.0,0008.66,0002.94,0001.80
